This is the latest recevied weather packets stored in our database for station/object N1OF. If no packets are shown the sender has not sent any weather packets the latest 10 day(s).
| Time | Temp. | Humidity | Pressure | Rain* | Wind** | Luminosity | Snow |
|---|---|---|---|---|---|---|---|
| 1777970911 | 15.56° C | 78% | 1004.4 hPa | 0 mm | - | - | - |
| 1777970609 | 15° C | 78% | 1004.3 hPa | 0 mm | - | - | - |
| 1777970306 | 15.56° C | 78% | 1004.2 hPa | 0 mm | - | - | - |
| 1777970004 | 15.56° C | 78% | 1004 hPa | 0 mm | - | - | - |
| 1777969700 | 15.56° C | 76% | 1004.2 hPa | 0 mm | - | - | - |
| 1777969391 | 15.56° C | 75% | 1004.2 hPa | 0 mm | - | - | - |
| 1777969088 | 16.11° C | 73% | 1004.4 hPa | 0 mm | - | - | - |
| 1777968785 | 16.67° C | 72% | 1004.2 hPa | 0 mm | - | - | - |
| 1777968481 | 17.22° C | 69% | 1004.5 hPa | 0 mm | - | - | - |
| 1777968177 | 17.22° C | 67% | 1004.6 hPa | 0 mm | - | - | - |
| 1777967873 | 17.22° C | 67% | 1004.5 hPa | 0 mm | - | - | - |
| 1777967570 | 17.22° C | 66% | 1004.5 hPa | 0 mm | - | - | - |
| 1777967267 | 17.78° C | 65% | 1004.4 hPa | 0 mm | - | - | - |
| 1777966964 | 17.78° C | 65% | 1004.5 hPa | 0 mm | - | - | - |
| 1777966662 | 17.78° C | 65% | 1004.4 hPa | 0 mm | - | - | - |
| 1777966359 | 17.78° C | 66% | 1004.2 hPa | 0 mm | - | - | - |
| 1777966056 | 17.78° C | 66% | 1004.4 hPa | 0 mm | - | - | - |
| 1777965752 | 17.78° C | 66% | 1004.2 hPa | 0 mm | - | - | - |
| 1777965447 | 17.78° C | 66% | 1004.1 hPa | 0 mm | - | - | - |
| 1777965145 | 17.78° C | 66% | 1004.1 hPa | 0 mm | - | - | - |
| 1777964842 | 17.78° C | 66% | 1003.9 hPa | 0 mm | - | - | - |
| 1777964539 | 17.78° C | 65% | 1003.9 hPa | 0 mm | - | - | - |
| 1777964234 | 17.78° C | 65% | 1004.1 hPa | 0 mm | - | - | - |
| 1777963932 | 18.33° C | 64% | 1004.3 hPa | 0 mm | - | - | - |
| 1777963628 | 18.33° C | 63% | 1004.2 hPa | 0 mm | - | - | - |
* Rain latest hour (hover to see other rain measurements)
** Current wind speed in m/s (hover to see current wind gust speed)